| time (UTC) | temp F | wind direction | speed MPH | gust MPH | rain 1hr in | rain 24hr in | rain mn in | humidity % | barometer mb |
| 20260905214552 | 95 | 30 | 0.0 | 4.0 | 0.00 | 0.00 | 0.00 | 18 | 1002.1 |
| 20260905213057 | 95 | 360 | 0.0 | 5.0 | 0.00 | 0.00 | 0.00 | 19 | 1002.3 |
| 20260905211550 | 96 | 80 | 0.0 | 7.0 | 0.00 | 0.00 | 0.00 | 19 | 1002.6 |
| 20260905210104 | 95 | 96 | 0.0 | 1.0 | 0.00 | 0.00 | 0.00 | 19 | 1002.7 |
| 20260905204544 | 94 | 336 | 0.0 | 5.0 | 0.00 | 0.00 | 0.00 | 19 | 1002.8 |
| 20260905203043 | 93 | 298 | 0.0 | 8.0 | 0.00 | 0.00 | 0.00 | 21 | 1003.1 |
| 20260905201540 | 91 | 114 | 0.0 | 8.0 | 0.00 | 0.00 | 0.00 | 20 | 1003.3 |
| 20260905200052 | 91 | 74 | 0.0 | 7.0 | 0.00 | 0.00 | 0.00 | 22 | 1003.5 |
| 20260905194538 | 91 | 17 | 0.0 | 4.0 | 0.00 | 0.00 | 0.00 | 22 | 1003.6 |
| 20260905193035 | 91 | 101 | 1.0 | 8.0 | 0.00 | 0.00 | 0.00 | 21 | 1003.7 |
| 20260905191540 | 91 | 69 | 0.0 | 8.0 | 0.00 | 0.00 | 0.00 | 21 | 1003.9 |
| 20260905190034 | 91 | 25 | 1.0 | 5.0 | 0.00 | 0.00 | 0.00 | 22 | 1004.1 |
| 20260905184535 | 90 | 74 | 1.0 | 10.0 | 0.00 | 0.00 | 0.00 | 23 | 1004.2 |
| 20260905183026 | 89 | 129 | 0.0 | 7.0 | 0.00 | 0.00 | 0.00 | 25 | 1004.3 |
| 20260905181524 | 88 | 123 | 0.0 | 4.0 | 0.00 | 0.00 | 0.00 | 27 | 1004.4 |
| 20260905180023 | 89 | 144 | 0.0 | 8.0 | 0.00 | 0.00 | 0.00 | 26 | 1004.6 |
| 20260905174520 | 87 | 107 | 1.0 | 6.0 | 0.00 | 0.00 | 0.00 | 27 | 1004.7 |
| 20260905173018 | 86 | 139 | 0.0 | 4.0 | 0.00 | 0.00 | 0.00 | 28 | 1004.7 |
| 20260905171617 | 86 | 109 | 0.0 | 8.0 | 0.00 | 0.00 | 0.00 | 27 | 1004.7 |
| 20260905170017 | 86 | 113 | 0.0 | 5.0 | 0.00 | 0.00 | 0.00 | 28 | 1004.5 |
| 20260905164516 | 86 | 118 | 0.0 | 6.0 | 0.00 | 0.00 | 0.00 | 30 | 1004.5 |
| 20260905163009 | 85 | 171 | 0.0 | 7.0 | 0.00 | 0.00 | 0.00 | 28 | 1004.4 |
| 20260905161505 | 82 | 96 | 0.0 | 5.0 | 0.00 | 0.00 | 0.00 | 33 | 1004.3 |
| 20260905160002 | 79 | 138 | 0.0 | 0.0 | 0.00 | 0.00 | 0.00 | 36 | 1004.4 |
| 20260905154559 | 77 | 209 | 0.0 | 0.0 | 0.00 | 0.00 | 0.00 | 40 | 1004.4 |
| 20260905153053 | 75 | 260 | 0.0 | 0.0 | 0.00 | 0.00 | 0.00 | 43 | 1004.3 |
| 20260905151552 | 75 | 261 | 0.0 | 0.0 | 0.00 | 0.00 | 0.00 | 49 | 1004.5 |
| 20260905150048 | 74 | 261 | 0.0 | 0.0 | 0.00 | 0.00 | 0.00 | 44 | 1004.6 |
| 20260905144551 | 71 | 261 | 0.0 | 0.0 | 0.00 | 0.00 | 0.00 | 52 | 1004.7 |
| 20260905143042 | 68 | 260 | 0.0 | 0.0 | 0.00 | 0.00 | 0.00 | 55 | 1004.9 |
| 20260905141540 | 64 | 260 | 0.0 | 0.0 | 0.00 | 0.00 | 0.00 | 58 | 1004.9 |
| 20260905140041 | 62 | 260 | 0.0 | 0.0 | 0.00 | 0.00 | 0.00 | 61 | 1004.8 |
| 20260905134544 | 60 | 261 | 0.0 | 0.0 | 0.00 | 0.00 | 0.00 | 65 | 1004.6 |
| 20260905133037 | 59 | 261 | 0.0 | 0.0 | 0.00 | 0.00 | 0.00 | 64 | 1004.7 |
| 20260905131535 | 58 | 261 | 0.0 | 0.0 | 0.00 | 0.00 | 0.00 | 61 | 1004.6 |
| 20260905130034 | 58 | 261 | 0.0 | 0.0 | 0.00 | 0.00 | 0.00 | 58 | 1004.6 |
| 20260905124540 | 58 | 261 | 0.0 | 0.0 | 0.00 | 0.00 | 0.00 | 57 | 1004.3 |
| 20260905123029 | 59 | 261 | 0.0 | 0.0 | 0.00 | 0.00 | 0.00 | 57 | 1004.1 |
| 20260905121526 | 59 | 261 | 0.0 | 0.0 | 0.00 | 0.00 | 0.00 | 57 | 1004.1 |
| 20260905120027 | 60 | 261 | 0.0 | 0.0 | 0.00 | 0.00 | 0.00 | 56 | 1003.9 |
| 20260905114521 | 60 | 261 | 0.0 | 5.0 | 0.00 | 0.00 | 0.00 | 54 | 1003.9 |
| 20260905113019 | 61 | 276 | 0.0 | 0.0 | 0.00 | 0.00 | 0.00 | 53 | 1003.9 |
| 20260905111516 | 61 | 276 | 0.0 | 0.0 | 0.00 | 0.00 | 0.00 | 52 | 1003.9 |
| 20260905104520 | 63 | 277 | 0.0 | 0.0 | 0.00 | 0.00 | 0.00 | 51 | 1003.7 |
| 20260905103011 | 63 | 277 | 0.0 | 0.0 | 0.00 | 0.00 | 0.00 | 50 | 1003.6 |
| 20260905101509 | 64 | 240 | 0.0 | 0.0 | 0.00 | 0.00 | 0.00 | 50 | 1003.6 |
| 20260905100007 | 64 | 240 | 0.0 | 0.0 | 0.00 | 0.00 | 0.00 | 49 | 1003.7 |
| 20260905094506 | 64 | 240 | 0.0 | 0.0 | 0.00 | 0.00 | 0.00 | 49 | 1003.5 |
| 20260905093006 | 64 | 240 | 0.0 | 0.0 | 0.00 | 0.00 | 0.00 | 50 | 1003.4 |
| 20260905091506 | 63 | 240 | 0.0 | 5.0 | 0.00 | 0.00 | 0.00 | 50 | 1003.2 |
| 20260905090004 | 63 | 311 | 0.0 | 0.0 | 0.00 | 0.00 | 0.00 | 52 | 1003.3 |
| 20260905084506 | 62 | 311 | 0.0 | 0.0 | 0.00 | 0.00 | 0.00 | 52 | 1003.3 |
| 20260905083003 | 62 | 335 | 0.0 | 0.0 | 0.00 | 0.00 | 0.00 | 51 | 1003.4 |
| 20260905081500 | 63 | 335 | 0.0 | 0.0 | 0.00 | 0.00 | 0.00 | 50 | 1003.4 |
| 20260905080101 | 63 | 335 | 0.0 | 0.0 | 0.00 | 0.00 | 0.00 | 52 | 1003.4 |
| 20260905074555 | 64 | 335 | 0.0 | 0.0 | 0.00 | 0.00 | 0.00 | 51 | 1003.4 |
| 20260905073052 | 64 | 335 | 0.0 | 0.0 | 0.00 | 0.00 | 0.00 | 48 | 1003.5 |
| 20260905071558 | 65 | 335 | 0.0 | 0.0 | 0.00 | 0.00 | 0.00 | 49 | 1003.5 |
| 20260905070048 | 65 | 334 | 0.0 | 0.0 | 0.00 | 0.00 | 0.00 | 47 | 1003.4 |
| 20260905064552 | 66 | 334 | 0.0 | 0.0 | 0.00 | 0.00 | 0.00 | 44 | 1003.3 |
| 20260905063041 | 67 | 334 | 0.0 | 0.0 | 0.00 | 0.00 | 0.00 | 44 | 1003.0 |
| 20260905061555 | 69 | 335 | 0.0 | 0.0 | 0.00 | 0.00 | 0.00 | 42 | 1003.3 |
| 20260905060034 | 69 | 335 | 0.0 | 0.0 | 0.00 | 0.00 | 0.00 | 41 | 1003.2 |
| 20260905054534 | 70 | 335 | 0.0 | 0.0 | 0.00 | 0.00 | 0.00 | 39 | 1003.0 |
| 20260905053033 | 71 | 335 | 0.0 | 0.0 | 0.00 | 0.00 | 0.00 | 37 | 1003.1 |
| 20260905051540 | 72 | 335 | 0.0 | 0.0 | 0.00 | 0.00 | 0.00 | 37 | 1002.9 |
| 20260905050033 | 72 | 335 | 0.0 | 0.0 | 0.00 | 0.00 | 0.00 | 36 | 1002.9 |
| 20260905044532 | 73 | 335 | 0.0 | 0.0 | 0.00 | 0.00 | 0.00 | 36 | 1002.9 |
| 20260905043059 | 74 | 315 | 0.0 | 0.0 | 0.00 | 0.00 | 0.00 | 35 | 1002.9 |
| 20260905041531 | 75 | 325 | 0.0 | 0.0 | 0.00 | 0.00 | 0.00 | 35 | 1002.9 |
| 20260905040033 | 75 | 324 | 0.0 | 0.0 | 0.00 | 0.00 | 0.00 | 37 | 1003.0 |
| 20260905034630 | 76 | 326 | 0.0 | 2.0 | 0.00 | 0.00 | 0.00 | 34 | 1003.0 |
| 20260905033030 | 76 | 335 | 0.0 | 0.0 | 0.00 | 0.00 | 0.00 | 34 | 1003.2 |
| 20260905031529 | 76 | 81 | 0.0 | 0.0 | 0.00 | 0.00 | 0.00 | 34 | 1002.9 |
| 20260905030028 | 77 | 81 | 0.0 | 0.0 | 0.00 | 0.00 | 0.00 | 34 | 1002.8 |
| 20260905024530 | 78 | 81 | 0.0 | 0.0 | 0.00 | 0.00 | 0.00 | 33 | 1002.6 |
| 20260905023031 | 79 | 81 | 0.0 | 0.0 | 0.00 | 0.00 | 0.00 | 33 | 1002.3 |
| 20260905021533 | 80 | 81 | 0.0 | 0.0 | 0.00 | 0.00 | 0.00 | 33 | 1002.0 |
| 20260905020026 | 80 | 81 | 0.0 | 0.0 | 0.00 | 0.00 | 0.00 | 30 | 1001.9 |
| 20260905014525 | 82 | 81 | 0.0 | 0.0 | 0.00 | 0.00 | 0.00 | 28 | 1001.8 |
| 20260905013027 | 82 | 81 | 0.0 | 0.0 | 0.00 | 0.00 | 0.00 | 28 | 1001.6 |
| 20260905011525 | 83 | 81 | 0.0 | 0.0 | 0.00 | 0.00 | 0.00 | 27 | 1001.5 |
| 20260905010025 | 84 | 70 | 0.0 | 1.0 | 0.00 | 0.00 | 0.00 | 26 | 1001.4 |
| 20260905004524 | 85 | 81 | 0.0 | 0.0 | 0.00 | 0.00 | 0.00 | 26 | 1001.5 |
| 20260905003025 | 86 | 74 | 0.0 | 0.0 | 0.00 | 0.00 | 0.00 | 25 | 1001.5 |
| 20260905001529 | 87 | 74 | 0.0 | 4.0 | 0.00 | 0.00 | 0.00 | 24 | 1001.4 |
| 20260905000032 | 88 | 69 | 0.0 | 4.0 | 0.00 | 0.00 | 0.00 | 23 | 1001.2 |
| 20260904234528 | 89 | 49 | 0.0 | 7.0 | 0.00 | 0.00 | 0.00 | 21 | 1001.2 |
| 20260904233025 | 92 | 84 | 0.0 | 5.0 | 0.00 | 0.00 | 0.00 | 20 | 1001.1 |
| 20260904231521 | 94 | 101 | 0.0 | 7.0 | 0.00 | 0.00 | 0.00 | 18 | 1001.0 |
| 20260904230022 | 95 | 90 | 0.0 | 6.0 | 0.00 | 0.00 | 0.00 | 17 | 1001.0 |
| 20260904224526 | 95 | 91 | 0.0 | 0.0 | 0.00 | 0.00 | 0.00 | 15 | 1001.0 |
| 20260904223019 | 95 | 129 | 0.0 | 0.0 | 0.00 | 0.00 | 0.00 | 15 | 1001.2 |
| 20260904221520 | 94 | 125 | 0.0 | 3.0 | 0.00 | 0.00 | 0.00 | 16 | 1001.2 |